CAPE
0 0 0 0 1 1 1 1 1 0 1 0 0 0 0 0 0 0 0 0 0 0 0 0 0 0 0 0 71 154 5 9 31 5 0 56 84 105 29 16 13 42 12 0 67
2 2 1 1 2 1 1 2 0 0 0 0 0 0 0 0 0 0 0 0 0 0 0 0 0 0 0 20 134 250 43 11 11 85 56 18 79 117 33 29 67 17 1 26 66
0 1 2 1 1 0 0 0 1 1 1 0 0 0 0 0 0 0 0 0 0 0 0 0 0 0 0 72 176 157 38 51 2 2 154 73 106 150 61 37 47 0 0 27 26
1 1 0 0 0 0 0 0 0 0 0 0 0 0 0 0 0 0 0 0 0 0 0 0 0 0 41 76 173 99 100 2 17 110 158 124 175 157 81 36 1 1 0 20 16
0 0 0 0 0 0 0 0 0 0 0 0 0 0 0 0 0 0 0 0 0 0 0 0 0 0 8 169 124 241 288 58 17 1 52 175 201 137 83 27 2 22 6 7 10
0 0 0 0 0 0 0 0 0 0 0 0 0 0 0 0 0 0 0 0 0 0 0 0 0 0 0 52 13 272 235 327 36 226 163 233 175 103 67 32 8 3 0 5 14
0 0 0 0 0 0 0 0 0 0 0 0 0 0 0 0 0 0 0 0 0 0 0 0 0 0 0 0 150 241 288 437 194 178 340 122 118 76 73 45 9 0 0 1 16
0 0 0 0 0 0 0 0 0 0 0 0 0 0 0 0 0 0 0 0 0 0 0 0 0 0 0 2 39 140 276 115 210 122 85 98 65 83 49 17 18 21 8 19 19
0 0 0 0 0 0 0 0 0 0 0 0 0 0 0 0 0 0 0 0 0 0 0 0 0 0 0 0 0 338 70 64 227 68 148 88 65 108 63 20 33 33 33 15 20
0 0 0 0 0 0 0 0 0 0 0 0 0 0 0 0 0 0 0 0 0 0 0 0 0 0 0 0 0 28 37 164 125 3 12 145 67 114 103 31 44 49 42 26 8
0 0 0 0 0 0 0 0 0 0 0 0 0 0 0 0 0 0 0 0 0 0 0 0 0 0 0 0 0 95 149 5 0 0 14 80 39 58 59 90 68 70 44 15 5
0 0 0 0 0 0 0 0 0 0 0 0 0 0 0 0 0 0 0 0 0 0 0 0 0 0 0 21 156 62 7 3 1 0 0 0 48 26 31 52 78 41 38 32 12
0 0 0 0 0 0 0 0 0 0 0 0 0 0 0 0 0 0 0 0 0 0 0 0 0 0 0 111 125 107 97 9 0 0 0 0 16 35 33 32 51 41 24 55 8
0 0 0 0 0 0 0 0 0 0 0 0 0 0 0 0 0 0 0 0 0 0 0 0 0 0 0 4 84 37 83 11 1 0 0 8 3 31 12 23 34 25 10 65 7
0 0 0 0 0 0 0 0 0 0 0 0 0 0 0 0 0 0 0 0 0 0 0 0 0 0 0 0 188 174 87 35 0 0 0 0 28 15 8 8 15 23 13 41 31
0 0 0 0 0 0 0 0 0 0 1 0 0 0 0 0 0 0 0 0 0 0 0 0 0 0 0 18 225 182 49 17 4 0 0 1 5 37 2 1 0 0 0 12 50
0 0 0 0 0 0 0 0 0 9 29 0 0 1 0 0 0 0 0 0 0 0 0 0 0 0 0 59 235 72 47 5 4 0 0 0 7 3 55 30 0 0 6 16 37
0 0 0 0 0 0 0 0 0 44 15 0 0 0 0 6 9 0 0 0 0 0 0 0 0 0 0 0 132 129 55 9 1 11 1 47 19 0 44 31 59 1 7 12 18
0 0 0 0 0 0 0 0 8 6 0 0 0 3 19 25 15 14 2 0 0 0 0 0 0 3 0 0 0 2 29 65 36 0 0 13 7 30 137 90 23 9 3 7 25
0 0 0 0 0 0 0 0 1 0 0 0 0 0 2 0 8 24 15 0 0 0 0 0 0 0 1 0 0 0 2 0 48 0 0 22 4 31 38 29 17 0 4 30 32
0 0 0 0 0 0 0 0 22 0 0 0 0 0 2 18 7 7 28 17 0 0 5 5 0 0 8 7 0 0 0 3 1 0 6 15 28 0 5 23 54 31 8 0 0
0 0 0 0 0 0 0 0 6 0 0 0 0 0 0 72 5 30 27 11 0 0 0 0 0 0 1 10 0 0 0 0 0 0 10 2 111 193 107 77 45 44 29 0 0
0 0 0 0 0 0 1 0 0 0 0 0 0 0 0 68 69 40 11 2 0 0 0 0 0 0 0 1 4 0 0 0 0 0 0 0 89 276 161 366 91 141 69 19 0
0 0 0 0 0 0 1 9 23 0 0 0 0 0 0 90 43 67 4 0 1 0 0 0 0 0 0 0 0 0 0 0 0 0 0 0 101 183 93 23 786 899 724 875 130
0 0 2 14 0 0 0 0 0 0 0 0 0 0 12 45 106 40 0 0 0 6 0 0 0 0 4 28 0 0 2 11 0 0 0 236 211 147 54 396 632 430 483 475 436
0 0 0 8 25 0 0 0 0 0 0 0 0 0 3 98 45 6 0 0 0 0 39 3 5 104 22 65 94 17 71 72 25 0 536 752 608 438 566 465 334 183 229 297 446
0 0 0 3 27 0 0 0 0 0 0 0 0 0 1 48 42 18 9 15 167 83 58 52 110 91 79 62 97 128 13 84 157 152 246 587 463 322 167 42 0 45 208 393 305
CIN
-0 -0 -0 -0 -0 -0 -0 -0 -0 -0 -0 -0 -0 -0 -0 -0 -0 -0 -0 -0 -0 -0 -0 -0 -0 -0 -0 -0 -10 -42 -42 -43 -33 -2 -0 -10 -23 -21 -26 -29 -22 -27 -41 -0 -16
-0 -0 -0 -0 -0 -0 -0 -0 -0 -0 -0 -0 -0 -0 -0 -0 -0 -0 -0 -0 -0 -0 -0 -0 -0 -0 -0 -49 -9 -22 -4 -58 -91 -72 -21 -2 -8 -15 -13 -5 -42 -38 -13 -28 -8
-0 -0 -0 -0 -0 -0 -0 -0 -0 -0 -0 -0 -0 -0 -0 -0 -0 -0 -0 -0 -0 -0 -0 -0 -0 -0 -0 -19 -13 -23 -23 -2 -62 -32 -87 -15 -21 -14 -12 -15 -66 -8 -0 -6 -8
-0 -0 -0 -0 -0 -0 -0 -0 -0 -0 -0 -0 -0 -0 -0 -0 -0 -0 -0 -0 -0 -0 -0 -0 -0 -0 -4 -17 -8 -9 -38 -110 -55 -99 -30 -16 -23 -15 -19 -17 -3 -7 -0 -3 -11
-0 -0 -0 -0 -0 -0 -0 -0 -0 -0 -0 -0 -0 -0 -0 -0 -0 -0 -0 -0 -0 -0 -0 -0 -0 -0 -16 -8 -18 -9 -16 -67 -61 -68 -77 -16 -8 -7 -8 -33 -31 -36 -3 -8 -18
-0 -0 -0 -0 -0 -0 -0 -0 -0 -0 -0 -0 -0 -0 -0 -0 -0 -0 -0 -0 -0 -0 -0 -0 -0 -0 -0 -10 -31 -25 -61 -22 -51 -45 -99 -19 -8 -18 -7 -25 -50 -11 -0 -8 -16
-0 -0 -0 -0 -0 -0 -0 -0 -0 -0 -0 -0 -0 -0 -0 -0 -0 -0 -0 -0 -0 -0 -0 -0 -0 -0 -0 -0 -19 -29 -17 -14 -37 -67 -39 -42 -11 -27 -23 -10 -34 -0 -0 -0 -12
-0 -0 -0 -0 -0 -0 -0 -0 -0 -0 -0 -0 -0 -0 -0 -0 -0 -0 -0 -0 -0 -0 -0 -0 -0 -0 -0 -1 -16 -14 -9 -9 -11 -30 -72 -16 -29 -25 -38 -24 -8 -6 -4 -5 -12
-0 -0 -0 -0 -0 -0 -0 -0 -0 -0 -0 -0 -0 -0 -0 -0 -0 -0 -0 -0 -0 -0 -0 -0 -0 -0 -0 -0 -0 -12 -16 -22 -15 -59 -8 -18 -26 -20 -27 -11 -9 -5 -3 -14 -17
-0 -0 -0 -0 -0 -0 -0 -0 -0 -0 -0 -0 -0 -0 -0 -0 -0 -0 -0 -0 -0 -0 -0 -0 -0 -0 -0 -0 -0 -24 -16 -18 -13 -0 -58 -24 -40 -40 -24 -8 -6 -5 -4 -14 -34
-0 -0 -0 -0 -0 -0 -0 -0 -0 -0 -0 -0 -0 -0 -0 -0 -0 -0 -0 -0 -0 -0 -0 -0 -0 -0 -0 -0 -0 -29 -36 -90 -0 -0 -63 -12 -43 -39 -90 -36 -37 -4 -11 -22 -26
-0 -0 -0 -0 -0 -0 -0 -0 -0 -0 -0 -0 -0 -0 -0 -0 -0 -0 -0 -0 -0 -0 -0 -0 -0 -0 -0 -14 -23 -82 -75 -98 -0 -0 -0 -0 -22 -82 -87 -92 -86 -53 -58 -18 -33
-0 -0 -0 -0 -0 -0 -0 -0 -0 -0 -0 -0 -0 -0 -0 -0 -0 -0 -0 -0 -0 -0 -0 -0 -0 -0 -0 -18 -20 -39 -27 -95 -0 -0 -0 -7 -0 -22 -61 -123 -123 -108 -120 -93 -45
-0 -0 -0 -0 -0 -0 -0 -0 -0 -0 -0 -0 -0 -0 -0 -0 -0 -0 -0 -0 -0 -0 -0 -0 -0 -0 -0 -30 -16 -49 -39 -63 -67 -0 -0 -0 -6 -7 -19 -40 -64 -108 -98 -88 -54
-0 -0 -0 -0 -0 -0 -0 -0 -0 -0 -0 -0 -0 -0 -0 -0 -0 -0 -0 -0 -0 -0 -0 -0 -0 -0 -0 -0 -69 -52 -124 -29 -8 -0 -0 -0 -0 -9 -30 -29 -43 -58 -95 -85 -73
-0 -0 -0 -0 -0 -0 -0 -0 -0 -0 -5 -0 -0 -0 -0 -0 -0 -0 -0 -0 -0 -0 -0 -0 -0 -0 -0 -7 -64 -102 -59 -63 -113 -0 -0 -13 -9 -21 -54 -66 -0 -0 -25 -79 -78
-0 -0 -0 -0 -0 -0 -0 -0 -0 -26 -5 -0 -0 -5 -0 -0 -0 -0 -0 -0 -0 -0 -0 -0 -0 -0 -0 -54 -119 -87 -63 -25 -1 -0 -15 -0 -2 -27 -79 -141 -24 -2 -84 -115 -89
-0 -0 -0 -0 -0 -0 -0 -0 -0 -30 -7 -0 -0 -0 -0 -5 -21 -0 -0 -0 -0 -0 -0 -0 -0 -0 -0 -0 -42 -41 -46 -28 -12 -16 -1 -13 -1 -0 -85 -106 -106 -75 -79 -75 -54
-0 -0 -0 -0 -0 -0 -0 -0 -3 -14 -0 -0 -0 -4 -10 -21 -8 -4 -1 -0 -0 -0 -0 -0 -1 -1 -0 -0 -0 -17 -16 -35 -50 -0 -0 -11 -24 -101 -50 -109 -72 -52 -124 -71 -59
-0 -0 -0 -0 -0 -0 -0 -0 -3 -0 -0 -0 -0 -0 -5 -0 -22 -11 -12 -4 -0 -0 -0 -0 -0 -0 -17 -0 -0 -0 -13 -0 -13 -3 -0 -21 -3 -12 -53 -129 -173 -3 -85 -47 -82
-0 -0 -0 -0 -0 -0 -0 -0 -13 -0 -0 -0 -0 -0 -1 -9 -18 -30 -23 -12 -0 -0 -18 -36 -0 -0 -23 -6 -0 -0 -2 -38 -19 -0 -13 -29 -14 -0 -13 -53 -109 -118 -140 -0 -0
-0 -0 -0 -0 -0 -0 -0 -0 -9 -0 -0 -0 -0 -0 -0 -10 -16 -55 -42 -79 -0 -0 -0 -0 -0 -0 -46 -8 -0 -0 -0 -0 -0 -0 -14 -6 -41 -102 -126 -176 -134 -95 -95 -3 -0
-0 -0 -0 -0 -0 -0 -1 -0 -0 -0 -0 -0 -0 -0 -0 -22 -22 -51 -102 -44 -0 -0 -0 -0 -0 -0 -4 -1 -1 -0 -0 -0 -0 -0 -0 -0 -51 -139 -147 -88 -149 -184 -156 -165 -0
-0 -0 -0 -0 -0 -0 -11 -8 -9 -0 -0 -0 -0 -0 -0 -15 -62 -77 -101 -0 -18 -0 -0 -0 -0 -0 -0 -21 -16 -0 -0 -0 -0 -0 -0 -0 -75 -142 -126 -101 -47 -50 -49 -61 -143
-0 -0 -1 -5 -0 -0 -0 -0 -0 -0 -0 -0 -0 -0 -6 -24 -83 -104 -0 -0 -18 -28 -0 -0 -0 -0 -113 -90 -0 -0 -5 -12 -0 -0 -0 -26 -53 -139 -230 -76 -56 -102 -99 -87 -79
-0 -0 -0 -55 -41 -0 -0 -0 -0 -0 -0 -0 -0 -0 -6 -12 -35 -115 -3 -0 -59 -1 -75 -102 -40 -31 -71 -71 -61 -62 -28 -24 -14 -0 -25 -60 -112 -209 -156 -143 -109 -112 -116 -112 -52
-0 -0 -0 -96 -38 -0 -0 -0 -0 -0 -0 -0 -0 -0 -14 -36 -52 -74 -95 -105 -51 -81 -76 -47 -38 -69 -48 -102 -102 -23 -113 -45 -80 -145 -30 -25 -115 -256 -178 -155 -0 -147 -214 -118 -114
Wind_Speed
7 6 6 7 8 9 10 13 16 19 24 25 26 26 27 27 27 20 16 2 4 5 12 11 6 23 25 19 10 10 7 8 28 21 25 16 31 17 21 24 23 22 29 32 31
4 4 4 4 5 8 7 9 11 16 22 24 25 26 27 27 25 28 5 15 12 5 11 6 5 14 14 7 11 11 15 4 22 22 20 26 16 17 19 25 19 25 28 31 30
4 4 4 3 4 4 6 10 8 15 22 24 25 26 26 26 22 17 20 10 8 9 14 4 22 3 7 11 16 15 22 14 35 32 27 26 16 5 20 21 21 27 30 32 31
5 3 5 4 3 3 4 9 16 21 24 24 25 26 26 17 12 16 11 5 9 14 14 20 24 27 13 12 22 21 10 14 22 38 30 27 17 23 23 23 26 28 30 30 29
10 13 12 9 9 7 6 4 8 20 24 25 25 25 20 12 6 11 10 10 12 12 10 8 21 23 12 12 22 15 13 8 17 41 36 19 19 15 10 23 22 22 26 28 27
27 24 18 15 13 13 11 10 7 5 23 24 24 25 13 11 13 7 9 12 13 10 15 22 19 22 24 17 17 19 21 10 9 23 36 31 11 1 9 21 20 22 25 30 25
29 27 24 21 18 16 13 13 11 12 17 21 22 20 11 3 19 10 9 16 15 13 16 26 31 27 24 26 17 22 14 11 6 6 11 8 13 4 14 17 21 25 27 24 21
30 29 27 23 22 18 14 12 11 11 15 17 19 17 12 15 22 26 18 15 15 21 25 30 27 29 28 23 21 22 18 15 7 7 14 15 1 16 16 20 19 24 25 20 17
29 28 27 24 23 19 15 10 11 13 13 14 17 15 13 18 18 17 24 19 14 23 27 30 29 28 29 29 29 20 22 17 9 5 24 16 5 2 22 18 18 21 17 14 12
30 29 27 25 26 21 9 10 15 16 15 13 13 16 15 20 10 11 19 23 21 21 27 29 21 26 30 31 31 26 23 19 14 17 28 13 5 12 10 9 19 18 12 13 13
31 31 30 27 25 24 24 19 21 18 15 13 13 11 21 15 18 16 14 20 25 23 28 24 27 32 32 33 33 23 18 18 20 16 12 21 10 11 16 12 15 11 5 9 12
31 32 31 30 27 20 16 17 15 19 22 5 3 2 18 22 19 18 21 19 21 27 26 30 33 33 34 28 15 18 21 21 20 24 23 22 22 21 21 17 17 14 11 11 10
32 32 31 29 25 14 12 9 7 3 18 12 7 10 10 10 21 16 16 24 22 28 30 33 32 30 33 23 21 21 23 20 20 19 20 26 25 24 22 23 27 23 21 16 14
32 31 31 28 17 17 10 4 5 11 19 13 14 16 15 12 13 26 11 26 27 26 29 32 34 33 32 28 25 25 19 16 20 23 23 21 25 27 27 33 26 21 23 19 22
32 31 29 22 11 14 12 19 18 13 23 17 17 19 15 13 11 13 7 26 32 29 25 31 31 32 32 33 14 18 7 15 15 17 14 23 24 27 22 29 28 14 24 26 25
33 30 29 17 11 10 11 13 3 16 21 16 16 15 16 10 14 5 12 21 28 30 30 32 30 30 28 20 9 7 5 13 16 17 15 13 19 17 21 19 33 28 18 22 26
34 25 14 11 10 6 18 12 17 16 14 20 19 11 10 11 10 12 17 24 29 24 27 27 31 28 28 12 6 10 12 18 21 20 25 19 24 25 31 31 17 19 17 23 25
29 23 5 6 9 13 18 15 16 15 16 24 22 11 13 14 11 4 19 23 30 33 31 28 30 28 22 26 16 14 19 21 23 21 19 20 22 22 25 16 14 15 21 27 28
27 14 9 9 13 13 13 14 14 13 25 24 24 17 18 22 21 13 20 22 27 31 32 22 26 23 23 23 28 26 29 19 20 19 19 19 19 19 11 11 8 9 15 33 31
17 13 7 14 13 12 11 9 8 15 24 21 23 25 20 15 20 23 19 17 22 23 31 32 30 25 24 21 24 23 20 31 22 27 25 17 13 19 12 10 3 3 23 27 29
13 13 9 15 14 8 6 7 9 17 19 19 24 23 20 17 11 19 21 17 19 22 20 22 24 29 27 24 22 27 24 21 21 24 27 19 22 9 14 9 9 3 38 29 23
13 12 14 13 10 7 4 5 8 4 20 22 22 21 18 17 17 16 19 20 23 22 21 18 21 25 24 17 15 21 26 25 27 23 27 25 22 5 10 20 23 24 22 30 32
11 9 8 8 4 3 7 5 6 14 21 21 20 22 25 18 18 21 23 25 26 25 20 21 20 22 20 17 15 20 27 27 26 29 32 28 23 3 11 9 18 22 21 26 29
11 12 8 5 6 2 2 5 5 12 15 18 21 18 18 17 21 23 24 25 28 27 22 21 24 24 23 23 26 25 24 27 26 31 31 30 18 12 9 14 12 5 8 12 27
8 7 23 10 4 4 7 9 16 15 14 19 15 17 20 16 19 21 24 23 23 20 24 22 28 31 25 23 24 25 25 23 29 28 26 18 14 15 17 13 11 9 8 7 3
7 17 19 22 23 18 1 11 3 14 17 16 21 24 25 16 17 21 18 15 23 25 26 23 28 24 28 24 21 22 22 24 27 31 11 5 11 10 6 5 11 14 10 7 4
14 17 15 11 19 9 6 8 12 16 17 12 16 16 20 18 15 13 8 11 11 19 23 22 20 24 27 27 25 15 20 21 16 14 19 13 10 7 11 12 12 7 5 6 7
Wind_Direction
217 208 204 213 218 223 224 233 240 249 271 280 282 285 287 284 276 301 310 151 56 108 331 312 40 191 213 218 339 9 326 59 197 126 122 100 146 94 107 105 107 104 110 121 111
182 159 148 166 202 220 208 214 219 238 262 272 278 282 287 290 293 271 216 280 312 5 308 325 93 144 148 338 335 341 7 48 241 225 170 135 100 94 100 119 90 97 107 126 123
166 163 136 132 164 170 201 224 204 234 264 271 282 287 289 289 307 313 294 155 307 313 289 238 190 21 323 315 307 322 346 288 199 207 216 165 113 69 108 114 110 114 118 126 115
217 153 99 116 138 159 185 221 247 263 273 278 290 294 290 324 337 315 332 333 294 289 282 261 258 253 293 304 280 300 0 145 254 208 198 137 115 132 132 127 120 119 123 119 115
41 56 56 65 64 71 82 110 215 262 284 294 298 300 321 336 340 323 335 314 294 283 275 276 264 262 282 306 278 315 324 68 135 193 185 142 122 109 80 112 115 108 115 122 120
0 18 34 39 45 46 51 58 71 109 328 320 312 302 346 331 334 351 326 304 287 274 267 256 268 267 273 285 300 297 277 343 116 240 201 162 107 289 94 113 112 114 123 136 120
353 2 14 23 28 33 42 43 48 44 12 343 326 327 347 308 304 325 314 299 276 268 265 250 243 261 272 270 286 267 307 332 14 238 251 112 109 95 118 121 118 126 134 124 111
352 357 5 15 14 25 37 41 44 42 25 10 348 345 347 319 306 279 287 289 279 260 254 246 259 259 266 276 275 265 287 285 306 232 250 227 338 123 128 129 122 130 133 124 113
357 3 3 9 6 16 32 45 41 35 33 27 12 9 357 330 312 296 275 273 274 256 251 251 257 258 260 258 255 267 266 274 297 295 223 240 199 189 136 134 131 133 126 119 108
349 354 4 6 357 8 39 38 28 23 37 33 20 7 2 348 332 320 271 265 264 259 252 253 265 256 253 252 249 258 263 274 283 285 260 254 203 240 235 145 136 136 133 130 121
344 338 351 359 357 358 358 25 22 25 22 19 13 11 343 348 323 304 287 262 258 257 247 252 250 245 245 247 248 264 269 276 280 319 247 254 218 239 246 237 246 145 182 149 130
340 332 330 330 339 5 23 27 33 18 5 14 141 52 336 321 320 293 264 261 255 248 250 245 243 245 242 259 269 265 271 279 291 294 277 277 243 240 231 252 237 236 237 235 144
336 332 328 310 291 28 46 58 76 64 13 35 82 19 28 2 300 290 267 250 252 247 246 240 242 245 244 253 259 273 276 275 284 292 294 259 247 240 248 245 235 239 241 249 226
332 332 324 302 16 16 52 118 118 45 20 44 34 31 26 22 342 249 269 243 246 249 248 246 243 247 248 252 262 265 291 282 276 292 276 270 257 244 243 237 245 246 243 242 233
333 332 321 356 35 41 70 284 16 56 15 45 40 37 44 55 221 275 280 245 238 246 255 247 245 247 251 253 256 259 325 291 298 304 299 258 258 244 244 249 241 214 237 234 241
328 324 313 14 51 130 223 241 160 37 24 50 43 53 58 94 201 322 278 256 246 252 258 250 254 257 254 273 248 210 333 323 299 286 281 287 266 262 236 170 179 185 216 233 236
308 276 5 22 76 258 263 61 35 37 53 30 25 56 65 61 134 270 279 247 239 248 252 257 248 255 257 267 223 258 266 280 275 266 250 287 251 226 244 247 206 182 204 228 239
289 266 57 121 124 215 268 48 43 47 39 360 4 51 49 49 112 42 272 257 241 241 253 253 246 250 268 252 246 242 251 266 263 265 283 270 272 266 241 209 258 191 220 230 231
288 17 50 108 137 126 56 45 41 30 3 353 305 8 0 287 307 358 275 263 247 243 244 262 255 276 264 261 256 259 256 271 278 286 273 281 280 249 309 292 274 238 195 224 226
8 19 111 157 126 102 63 59 54 30 351 359 322 324 354 330 323 317 288 287 263 269 249 252 265 265 276 268 259 262 278 261 263 257 257 285 282 270 291 300 326 157 163 182 224
35 37 89 139 125 102 75 64 48 29 24 15 336 337 359 6 352 331 304 297 293 283 270 271 264 260 273 252 254 256 264 268 276 263 259 274 286 3 152 140 276 179 180 165 223
32 50 72 98 98 106 100 195 47 94 -0 360 354 349 354 351 333 326 300 294 289 288 271 280 265 263 266 275 267 264 260 266 266 269 265 276 284 2 92 155 163 164 163 173 171
28 51 177 86 111 88 56 106 121 6 348 357 1 345 336 351 333 315 293 276 280 283 284 279 265 261 265 275 286 269 263 269 273 272 267 267 275 124 134 130 159 166 172 175 173
9 23 60 76 148 81 70 53 31 24 12 12 7 358 347 355 336 305 284 269 279 267 283 278 260 258 261 276 275 277 268 267 271 267 268 273 275 250 260 269 291 299 272 275 179
13 28 331 5 70 163 184 8 9 11 28 13 21 14 353 355 328 309 274 280 281 287 275 270 259 257 275 282 272 274 279 273 271 271 272 283 262 253 266 280 274 303 308 328 281
6 339 330 313 295 344 172 12 63 4 10 18 4 334 319 28 344 299 279 296 277 288 269 278 262 266 261 276 293 274 286 296 279 258 296 257 268 271 266 297 294 301 311 304 284
340 324 331 339 324 5 23 17 11 348 359 35 9 11 355 10 33 47 76 22 250 287 279 275 276 266 256 268 275 275 292 308 308 306 270 259 263 234 260 269 284 289 311 281 257